Torna al catalogo

CZ-2F DEB

AttivoVLEO
NORAD 53364·DEBRIS·🇨🇳 China

Lanciato Aug 4, 2022 da Jiuquan Satellite Launch Center

Loading…

Prossimi Passaggi (prossime 24 ore)

TLE

AggiornatoSource: Space-Track

Epoca: Sep 14, 2026, 07:26 UTC

1 53364U 22093H   26257.30984992  .00006075  00000-0  24219-3 0  9992
2 53364  50.0463 107.8892 0070161  83.2124 277.6809 15.24320548227027

Traccia CZ-2F DEB in tempo reale con AllMySat

Download on the App Store